CW4611 Weather Reports


time (UTC)temp
C
wind
direction
speed
KPH
gust
KPH
rain 1hr
cm
rain 24hr
cm
rain mn
cm
humidity
%
barometer
mb
20260504214605 12 11 11.3 20.9 0.00 0.00 0.00 41 1008.1
20260504214105 12 11 8.0 16.1 0.00 0.00 0.00 43 1008.1
20260504213605 12 11 8.0 16.1 0.00 0.00 0.00 43 1008.2
20260504213105 12 9 8.0 25.7 0.00 0.00 0.00 43 1008.2
20260504211105 12 11 14.5 25.7 0.00 0.00 0.00 45 1008.3
20260504210605 12 11 11.3 22.5 0.00 0.00 0.00 45 1008.3
20260504210105 12 11 9.7 35.4 0.00 0.00 0.00 45 1008.3
20260504204604 14 11 20.9 32.2 0.00 0.00 0.00 35 1008.1
20260504204105 16 9 6.4 12.9 0.00 0.00 0.00 25 1008.1
20260504203605 16 11 3.2 14.5 0.00 0.00 0.00 26 1008.2
20260504201605 16 13 9.7 22.5 0.00 0.00 0.00 29 1008.2
20260504201105 16 12 12.9 19.3 0.00 0.00 0.00 31 1008.1
20260504200604 16 13 6.4 16.1 0.00 0.00 0.00 35 1008.3
20260504200105 16 14 8.0 24.1 0.00 0.00 0.00 35 1008.4
20260504194605 15 12 9.7 19.3 0.00 0.00 0.00 30 1008.5
20260504193604 16 14 9.7 24.1 0.00 0.00 0.00 28 1008.5
20260504193104 16 13 4.8 20.9 0.00 0.00 0.00 25 1008.3
20260504191605 16 10 3.2 9.7 0.00 0.00 0.00 29 1008.4
20260504191105 15 13 3.2 14.5 0.00 0.00 0.00 31 1008.5
20260504190605 15 9 8.0 14.5 0.00 0.00 0.00 30 1008.5
20260504190105 14 10 3.2 19.3 0.00 0.00 0.00 31 1008.7
20260504184605 15 13 8.0 20.9 0.00 0.00 0.00 30 1008.8
20260504181604 16 341 8.0 20.9 0.00 0.00 0.00 28 1008.7
20260504181104 17 279 8.0 19.3 0.00 0.00 0.00 28 1008.8
20260504180604 16 191 8.0 16.1 0.00 0.00 0.00 28 1008.8
20260504180105 16 12 6.4 16.1 0.00 0.00 0.00 28 1008.8
20260504174605 16 13 9.7 19.3 0.00 0.00 0.00 29 1008.9
20260504174105 16 16 4.8 11.3 0.00 0.00 0.00 29 1009.0
20260504173605 16 13 4.8 16.1 0.00 0.00 0.00 30 1009.2
20260504173105 16 14 9.7 16.1 0.00 0.00 0.00 29 1009.2
20260504171605 16 13 4.8 12.9 0.00 0.00 0.00 30 1009.4
20260504171105 15 14 8.0 14.5 0.00 0.00 0.00 31 1009.4
20260504170104 15 18 4.8 11.3 0.00 0.00 0.00 34 1009.6
20260504160105 13 14 4.8 11.3 0.00 0.00 0.00 37 1009.9
20260504151105 11 12 4.8 8.0 0.00 0.00 0.00 40 1010.3
20260504150605 11 11 4.8 9.7 0.00 0.00 0.00 40 1010.2
20260504150105 11 11 4.8 9.7 0.00 0.00 0.00 42 1010.2
20260504141105 7 10 4.8 11.3 0.00 0.00 0.00 43 1010.4
20260504140104 7 11 3.2 9.7 0.00 0.00 0.00 50 1010.4
20260504130604 5 14 0.0 1.6 0.00 0.00 0.00 53 1010.9
20260504130104 5 14 0.0 3.2 0.00 0.00 0.00 53 1010.9
20260504110604 5 11 0.0 1.6 0.00 0.00 0.00 50 1010.6
20260504110104 5 11 1.6 4.8 0.00 0.00 0.00 47 1010.6
20260504100604 5 12 0.0 1.6 0.00 0.00 0.00 48 1010.7
20260504100104 5 12 0.0 8.0 0.00 0.00 0.00 48 1010.7
20260504090105 7 9 9.7 22.5 0.00 0.00 0.00 37 1010.1
20260504081604 7 10 14.5 24.1 0.00 0.00 0.00 37 1010.7
20260504080604 7 9 12.9 19.3 0.00 0.00 0.00 36 1010.8
20260504080104 7 10 11.3 22.5 0.00 0.00 0.00 36 1010.9
20260504070104 7 10 16.1 25.7 0.00 0.00 0.00 37 1011.3
20260504060104 7 9 14.5 24.1 0.00 0.00 0.00 37 1011.7
20260504050604 8 9 8.0 12.9 0.00 0.00 0.00 35 1011.9
20260504050104 8 10 9.7 19.3 0.00 0.00 0.00 34 1011.9
20260504044106 9 9 9.7 19.3 0.00 0.00 0.00 34 1012.1
20260504043605 9 9 12.9 20.9 0.00 0.00 0.00 33 1012.1
20260504043104 9 10 14.5 20.9 0.00 0.00 0.00 33 1012.1
20260504041604 10 9 9.7 16.1 0.00 0.00 0.00 33 1012.1
20260504041104 10 10 11.3 19.3 0.00 0.00 0.00 33 1012.1
20260504040604 10 10 16.1 24.1 0.00 0.00 0.00 32 1012.1
20260504040105 10 10 6.4 14.5 0.00 0.00 0.00 34 1012.1
20260504034605 10 10 12.9 19.3 0.00 0.00 0.00 32 1012.0
20260504034105 10 10 14.5 20.9 0.00 0.00 0.00 32 1012.0
20260504033604 10 10 4.8 8.0 0.00 0.00 0.00 32 1012.0
20260504033104 10 9 3.2 8.0 0.00 0.00 0.00 33 1012.0
20260504031605 10 9 3.2 4.8 0.00 0.00 0.00 32 1011.9
20260504031104 10 9 3.2 4.8 0.00 0.00 0.00 32 1011.9
20260504030604 11 10 4.8 9.7 0.00 0.00 0.00 32 1011.9
20260504030104 11 9 4.8 11.3 0.00 0.00 0.00 33 1011.8
20260504024604 12 9 3.2 4.8 0.00 0.00 0.00 29 1011.9
20260504024104 12 15 1.6 3.2 0.00 0.00 0.00 29 1011.8
20260504023604 12 15 0.0 3.2 0.00 0.00 0.00 29 1011.8
20260504023104 12 15 1.6 4.8 0.00 0.00 0.00 30 1011.8
20260504021104 13 6 3.2 4.8 0.00 0.00 0.00 25 1011.7
20260504020604 13 7 4.8 4.8 0.00 0.00 0.00 23 1011.8
20260504014104 15 13 0.0 1.6 0.00 0.00 0.00 21 1011.8
20260504013604 15 13 0.0 0.0 0.00 0.00 0.00 21 1011.9
20260504013104 15 13 0.0 3.2 0.00 0.00 0.00 20 1011.9
20260504011604 15 13 1.6 4.8 0.00 0.00 0.00 20 1011.9
20260504011104 15 13 1.6 4.8 0.00 0.00 0.00 19 1011.9
20260504010604 15 14 3.2 4.8 0.00 0.00 0.00 21 1011.9
20260504010104 15 14 3.2 8.0 0.00 0.00 0.00 20 1012.0
20260504004104 16 14 3.2 9.7 0.00 0.00 0.00 20 1012.1
20260504003604 16 14 1.6 4.8 0.00 0.00 0.00 20 1012.1
20260504003104 16 14 3.2 11.3 0.00 0.00 0.00 20 1012.1
20260504001604 16 14 4.8 14.5 0.00 0.00 0.00 20 1012.2
20260504001104 16 13 1.6 4.8 0.00 0.00 0.00 19 1012.2
20260504000603 16 15 1.6 4.8 0.00 0.00 0.00 19 1012.3
20260504000104 16 15 3.2 8.0 0.00 0.00 0.00 20 1012.4
20260503234604 16 13 3.2 14.5 0.00 0.00 0.00 19 1012.4
20260503234103 16 14 3.2 4.8 0.00 0.00 0.00 19 1012.4
20260503233604 16 13 4.8 9.7 0.00 0.00 0.00 18 1012.5
20260503233104 16 15 1.6 14.5 0.00 0.00 0.00 18 1012.5
20260503231604 17 14 6.4 12.9 0.00 0.00 0.00 18 1012.6
20260503231103 17 13 4.8 14.5 0.00 0.00 0.00 17 1012.6
20260503230604 18 14 6.4 14.5 0.00 0.00 0.00 17 1012.7
20260503230104 18 14 6.4 19.3 0.00 0.00 0.00 18 1012.7
20260503224603 17 15 8.0 19.3 0.00 0.00 0.00 18 1012.7
20260503224104 17 14 6.4 19.3 0.00 0.00 0.00 19 1012.8
20260503223604 17 14 4.8 9.7 0.00 0.00 0.00 19 1012.8
20260503223104 16 14 4.8 11.3 0.00 0.00 0.00 19 1012.9
20260503221605 16 14 4.8 14.5 0.00 0.00 0.00 18 1013.0
20260503221104 16 14 8.0 14.5 0.00 0.00 0.00 19 1013.1
20260503220605 16 13 4.8 19.3 0.00 0.00 0.00 19 1013.2
20260503220105 16 12 3.2 19.3 0.00 0.00 0.00 19 1013.3